Theta_e
279 279 278 278 277 276 276 275 275 274 274 275 276 276 276 275 275 274 274 273 273 272 272 272 271 271 271 271 271 271 271 271 271 271 271 271 271 271 271 271 271 271 272 272 272 273 273 273 274 274 274 275 275 276 277 278 280 282 284 286 289 291 293 294 295 295 295 295 296 296 297 298 298 299 300 301 300 303 312 322 324 324 325 325 325
278 278 277 277 276 275 275 275 274 273 274 275 276 276 275 274 274 273 273 273 272 272 271 271 270 270 270 270 270 270 270 270 270 270 270 270 270 270 271 271 271 271 271 272 272 272 273 274 274 275 275 275 276 277 277 279 280 282 284 286 289 291 293 294 295 295 295 296 296 296 297 297 299 299 300 301 301 302 309 319 323 324 324 324 325
278 277 277 276 275 275 275 274 274 273 274 275 275 275 274 274 274 274 273 272 271 270 270 270 269 269 269 269 269 269 269 269 270 270 270 270 270 270 270 270 270 271 271 271 272 272 272 273 274 274 275 275 276 277 278 279 280 282 283 285 288 291 292 294 294 295 295 295 296 297 297 298 299 300 300 301 302 303 307 316 323 323 323 323 324
277 277 276 275 275 274 274 273 273 274 275 275 275 274 274 274 274 272 271 270 269 269 269 268 268 268 268 268 268 268 269 269 269 269 269 269 269 269 269 270 270 270 271 271 271 272 272 272 273 273 274 276 276 277 278 280 281 283 285 287 289 291 293 293 294 294 295 295 296 297 297 298 299 300 300 301 303 304 307 314 322 323 322 323 323
276 276 275 275 274 274 273 273 273 274 274 274 274 274 274 273 272 271 270 269 268 268 268 267 267 267 268 268 268 268 268 268 269 269 269 269 269 269 269 269 270 270 271 271 271 272 272 272 273 273 273 274 276 277 278 280 282 284 286 288 290 291 293 293 293 294 294 295 296 296 297 298 299 300 301 302 304 305 307 313 320 322 322 322 322
275 275 274 274 274 274 273 272 273 273 274 274 274 273 273 271 271 270 269 268 267 267 267 267 267 267 267 267 267 267 268 268 268 268 268 269 269 269 269 270 270 270 271 271 271 272 272 272 273 273 273 274 275 276 278 279 281 283 285 288 291 292 292 293 293 293 294 295 295 296 297 298 299 299 300 302 304 306 308 313 318 321 321 321 321
275 274 274 273 273 273 272 272 272 273 273 273 273 273 271 270 269 269 268 267 266 266 266 266 266 266 267 267 267 268 268 268 268 268 268 269 269 269 269 270 270 271 271 271 271 272 272 272 273 273 273 274 274 275 276 277 279 281 283 287 291 292 292 292 293 293 294 294 295 296 297 298 299 300 300 302 303 305 308 313 317 319 320 320 319
274 273 273 273 273 272 271 271 272 273 273 273 273 272 270 269 268 268 267 266 266 266 266 266 266 266 267 267 268 268 268 268 268 269 269 269 269 270 270 270 271 271 271 271 272 272 272 273 273 273 273 273 274 275 275 275 277 279 281 285 290 291 291 292 292 292 293 293 294 295 296 297 299 300 301 302 304 306 308 313 315 316 318 319 319
273 273 273 272 271 271 271 271 272 272 272 272 272 271 269 268 267 267 266 265 265 266 266 266 266 266 267 268 268 268 268 268 268 268 269 270 271 271 272 272 272 272 272 272 272 273 273 273 273 273 274 274 274 275 276 276 277 279 280 283 288 291 291 291 291 291 291 291 292 293 294 296 298 299 301 303 305 306 309 313 314 315 317 318 318
272 273 272 271 271 270 271 271 272 272 272 272 271 269 268 267 266 265 265 265 265 265 265 266 266 267 267 267 267 267 267 267 267 268 270 271 272 272 273 274 274 275 275 274 274 274 273 273 274 274 275 276 276 277 277 278 278 279 280 282 284 288 291 291 290 291 291 291 291 292 293 295 296 299 301 303 305 306 310 313 313 313 315 316 316
272 272 272 271 271 270 270 271 272 272 272 271 270 268 267 266 265 265 265 265 265 265 265 266 266 266 267 266 267 267 267 267 268 269 270 272 272 273 274 275 275 276 276 276 276 275 275 274 275 275 276 276 277 277 278 279 280 280 281 282 283 285 288 290 290 290 290 290 291 292 293 294 295 298 300 303 305 307 310 313 313 313 314 314 314
272 272 271 271 270 270 270 271 272 272 271 270 269 267 266 265 264 264 264 265 265 265 265 266 266 266 266 266 266 266 266 267 268 269 271 272 273 274 275 276 276 277 277 277 277 277 276 276 276 276 276 277 277 277 278 280 281 282 282 283 285 286 288 290 290 290 290 290 291 291 292 293 294 296 299 303 305 308 311 313 313 312 313 314 314
272 271 271 270 270 270 270 271 272 272 270 269 268 266 265 264 264 264 264 265 265 265 265 265 265 265 265 265 266 266 266 266 268 270 271 273 274 275 276 277 277 278 278 278 278 278 278 277 277 277 277 277 277 278 278 280 281 282 283 284 286 287 288 289 290 290 290 290 290 291 291 292 293 294 296 300 305 309 311 312 313 313 312 313 313
271 271 270 270 270 270 271 271 271 271 269 268 267 266 265 264 264 264 264 264 264 264 264 265 265 265 265 265 265 265 266 267 268 270 272 274 275 276 277 277 277 278 278 278 279 279 279 278 278 278 278 278 278 278 279 280 281 282 283 284 286 287 288 288 289 289 289 290 290 290 290 291 292 292 294 296 302 309 312 311 312 313 312 313 313
271 270 270 270 269 270 271 271 270 269 268 267 266 266 265 264 264 264 264 264 264 264 264 264 264 264 265 265 265 265 266 267 269 271 273 274 275 276 277 277 277 277 277 278 279 279 279 279 278 278 278 278 278 278 279 280 282 282 283 284 285 286 287 287 288 288 289 289 290 290 290 290 291 292 293 293 297 305 312 313 313 313 312 312 313
270 270 270 269 269 270 270 270 269 267 266 266 265 265 265 264 264 264 264 264 263 263 264 264 264 264 265 265 265 266 267 268 270 271 273 274 275 276 276 276 276 276 277 278 279 279 279 279 278 278 278 278 278 278 279 281 282 283 283 283 284 286 287 287 288 288 289 289 289 289 290 290 291 292 293 294 295 301 310 313 312 312 311 311 311
270 270 269 269 270 270 269 268 267 266 266 265 265 264 264 265 265 264 263 263 263 263 264 264 264 264 265 266 266 267 268 269 270 272 273 274 275 275 275 275 276 276 277 277 278 279 279 279 279 278 278 278 279 279 280 281 282 283 284 284 284 286 287 287 288 288 289 289 289 289 290 290 291 291 293 295 295 297 305 310 310 310 311 311 311
270 269 269 270 270 270 269 267 266 266 265 264 264 264 265 265 264 263 263 262 263 263 264 264 264 265 266 267 267 268 269 269 270 272 273 274 275 275 275 275 276 276 277 277 278 279 279 280 279 279 279 279 279 279 280 281 282 283 284 285 285 286 286 287 287 288 288 289 289 290 290 290 291 292 293 295 296 297 303 309 310 310 312 312 311
270 269 269 270 270 270 268 266 264 265 265 265 263 264 264 264 264 263 263 262 263 263 264 264 265 266 267 268 268 269 269 269 270 272 273 274 274 274 275 275 275 276 277 277 278 279 279 280 280 280 280 280 280 280 281 281 282 283 284 284 285 286 286 287 288 288 289 289 289 290 290 290 291 293 295 297 298 298 303 309 311 311 312 311 310
269 269 270 270 270 269 268 266 264 264 265 265 265 264 264 264 263 263 263 263 263 263 264 265 266 267 268 268 269 269 269 269 270 272 273 273 274 274 275 275 276 276 277 278 278 279 279 280 280 280 281 281 281 281 281 282 283 284 284 284 285 285 286 287 288 289 289 290 290 290 290 290 291 293 296 299 300 300 304 309 312 312 312 311 310
269 269 270 270 269 268 266 265 265 265 265 265 266 266 265 263 263 262 262 263 263 263 265 266 267 268 268 269 269 269 269 270 271 271 272 273 274 274 275 275 276 276 277 277 278 278 279 280 280 280 281 281 282 282 282 282 283 284 285 285 285 285 286 286 288 289 289 290 290 290 290 290 291 294 297 301 302 302 305 309 312 312 312 311 310
269 269 270 270 269 267 265 265 265 266 265 265 266 267 266 264 263 262 262 262 262 264 266 267 267 268 269 269 269 269 269 270 271 271 271 272 274 274 275 275 275 276 277 277 277 278 278 279 280 281 281 282 282 283 283 283 283 284 285 285 285 286 286 287 287 289 289 290 290 290 290 291 292 296 300 302 303 304 307 309 310 311 312 312 312
269 269 270 269 268 266 266 266 266 266 266 265 266 267 266 264 263 262 262 262 263 265 266 267 267 268 269 269 269 269 270 270 270 271 271 272 273 274 274 275 275 276 276 276 277 277 278 278 279 280 281 282 283 283 284 284 284 284 285 285 286 287 287 287 288 289 290 290 290 290 291 291 294 298 301 303 304 305 307 309 309 310 310 311 312
269 269 269 268 267 266 266 266 266 266 265 266 267 267 265 263 262 262 262 262 263 265 266 267 268 269 269 269 269 270 270 270 270 270 271 272 273 273 274 274 274 275 275 275 276 276 277 278 279 280 281 282 283 284 284 285 285 285 285 286 287 287 288 288 289 289 290 290 290 291 291 292 295 300 302 303 304 306 308 308 309 309 309 309 309
269 269 268 268 267 267 267 267 267 266 265 266 266 266 264 262 261 262 262 262 264 265 265 267 269 269 269 269 269 269 270 270 270 270 271 272 272 273 273 273 273 274 274 275 275 276 277 278 279 280 281 282 283 284 285 285 285 285 286 286 287 288 288 289 289 290 291 290 291 291 292 293 296 301 303 303 304 306 306 307 307 308 308 308 308
268 268 267 267 267 268 268 268 267 266 266 266 266 265 263 261 260 261 262 263 264 265 266 268 268 269 269 269 269 269 270 270 270 271 272 272 272 272 272 272 272 273 273 274 275 276 277 278 278 280 281 282 283 285 285 285 285 286 286 287 287 288 289 290 290 290 291 291 291 291 292 293 297 301 303 304 304 304 304 305 305 305 306 307 307
268 267 266 266 267 268 268 269 268 267 267 267 267 265 263 261 260 261 262 263 264 265 267 269 269 268 269 269 269 269 270 270 270 271 272 272 272 271 271 271 271 272 273 274 274 275 276 278 278 279 281 282 283 284 286 286 286 286 287 287 287 288 289 290 290 290 290 291 291 291 292 294 298 301 303 303 303 303 304 304 304 304 306 306 305
267 266 265 266 267 267 268 268 268 268 268 267 266 264 264 263 262 262 263 263 265 266 268 268 268 268 269 269 269 269 270 270 271 271 272 272 272 271 270 270 271 271 272 273 274 274 275 278 280 281 282 283 284 285 287 287 287 287 287 288 288 288 289 289 290 290 290 291 291 292 292 294 298 301 303 302 302 303 304 304 303 303 305 305 303
265 265 265 265 266 266 267 267 267 268 268 268 266 263 262 262 262 263 264 264 266 267 268 268 268 268 269 268 268 269 270 270 271 272 272 271 271 271 270 270 270 271 272 272 272 271 273 275 278 280 282 284 286 288 288 288 287 288 288 288 289 289 289 290 290 290 290 291 291 292 292 294 298 301 301 302 302 302 304 304 302 302 304 304 303
264 264 265 265 265 266 266 266 266 267 267 267 266 265 265 264 262 263 264 265 266 267 267 267 268 268 268 268 268 269 270 270 270 271 271 271 271 270 269 269 270 271 271 271 269 269 270 272 274 276 277 279 283 286 289 289 289 289 289 289 289 290 290 290 290 290 290 291 291 292 293 295 298 300 301 301 301 302 303 304 302 302 303 304 302
264 264 264 265 265 265 265 265 265 265 265 264 263 263 265 266 266 265 264 263 264 266 266 266 267 267 268 268 268 269 269 270 270 270 270 270 270 269 268 268 269 270 270 269 267 267 269 270 271 272 273 274 276 279 282 286 289 290 290 290 290 290 290 290 290 290 291 291 292 293 294 296 298 300 301 301 300 301 302 303 302 303 303 303 302
265 264 264 264 265 265 265 265 265 264 264 262 260 259 259 262 265 267 267 265 263 263 264 265 265 266 267 267 268 268 269 269 269 269 269 269 269 268 267 266 267 268 268 267 267 267 267 269 270 270 271 272 272 273 275 278 282 286 289 291 291 290 290 291 290 290 291 291 292 293 295 297 298 299 300 301 300 300 301 301 302 303 304 303 302
266 265 265 264 264 265 265 265 265 264 263 260 258 257 256 256 258 261 265 267 266 265 264 263 263 264 265 266 267 268 268 268 268 268 268 268 268 266 265 264 265 266 266 266 266 267 267 268 269 269 269 270 270 271 273 274 275 278 282 287 290 291 291 290 290 291 291 292 293 294 295 297 298 299 300 300 300 300 300 301 302 303 304 303 302
266 265 265 264 265 265 264 264 264 264 262 259 257 257 256 256 255 255 257 260 263 264 265 264 262 262 263 264 265 267 267 267 267 267 267 267 266 265 264 263 264 264 264 264 266 267 267 267 268 268 269 269 270 270 271 272 273 274 276 279 284 288 291 291 291 291 292 292 293 294 295 297 298 299 299 299 300 300 300 301 301 302 303 303 302
265 265 264 264 264 264 264 264 264 263 262 260 258 257 256 256 256 255 255 255 256 257 260 261 261 261 261 262 264 265 266 265 266 266 266 265 264 263 262 261 261 261 261 262 264 266 267 267 268 268 268 269 269 269 270 271 271 272 273 275 278 282 288 291 292 292 292 293 293 294 296 297 298 299 299 299 299 300 300 300 301 301 302 302 301
265 264 264 263 264 264 263 263 264 263 262 260 258 257 257 256 255 255 255 255 255 255 256 258 259 260 261 261 262 264 264 263 264 264 264 264 263 261 260 259 258 259 260 261 263 266 267 267 267 268 268 268 269 269 269 270 270 271 272 273 275 277 282 289 292 293 292 293 293 294 296 297 298 298 299 299 299 299 300 300 300 301 301 301 301
264 264 263 263 263 263 263 263 263 263 262 260 259 258 257 256 256 255 255 255 255 255 255 256 257 259 260 260 261 262 262 261 262 261 261 262 261 259 259 258 258 258 259 260 263 265 267 267 267 268 268 268 269 269 269 270 270 270 271 272 272 274 277 284 290 293 292 293 294 294 295 297 298 298 298 299 299 299 300 300 300 300 301 300 300
264 264 264 263 263 263 263 263 263 262 262 261 260 259 258 256 256 255 255 255 254 254 255 255 255 256 257 259 261 262 260 260 260 260 259 260 259 259 259 258 258 258 259 260 263 265 266 267 267 268 268 268 268 269 269 269 269 270 270 270 271 273 274 279 286 292 293 293 293 295 296 296 297 298 298 299 299 299 299 299 300 300 300 299 300
263 263 263 263 263 263 263 263 262 262 262 261 260 259 258 257 257 256 255 255 254 254 255 255 255 255 256 258 261 261 259 258 258 258 258 258 259 258 258 258 258 258 259 260 262 264 265 266 267 268 268 268 268 268 269 269 269 269 270 270 270 271 273 275 280 287 293 294 293 294 295 296 297 297 298 299 299 299 299 299 299 300 299 299 300
262 262 262 262 263 262 263 263 262 262 262 261 260 260 259 257 256 256 255 254 254 254 254 254 255 256 256 258 261 261 257 256 257 257 258 258 258 258 258 258 258 258 259 260 262 264 265 266 267 267 268 268 268 268 269 269 269 269 270 270 270 270 271 272 273 278 284 291 294 295 295 296 297 297 297 298 299 299 299 299 299 299 300 299 300
263 262 262 263 263 262 263 262 262 262 262 261 260 260 259 258 257 256 255 254 253 254 254 255 256 256 257 258 261 260 257 255 256 257 257 257 257 257 258 258 258 258 259 260 262 263 264 265 266 267 268 268 268 268 269 269 269 269 269 269 270 270 270 271 271 272 275 281 288 294 295 295 296 297 297 298 298 299 299 299 299 299 299 299 299
263 263 262 262 262 263 263 262 262 262 261 261 260 259 259 258 257 256 255 254 254 254 255 255 257 258 258 258 258 258 257 256 256 256 257 257 257 257 258 258 259 260 260 260 261 263 264 265 266 267 268 268 268 268 269 269 269 269 269 269 269 269 269 269 270 271 271 274 280 288 294 295 295 296 297 297 298 298 298 298 299 299 299 299 299
263 263 262 262 262 262 262 262 262 261 261 260 260 259 259 258 257 256 256 255 255 255 255 255 256 258 258 258 258 258 258 257 256 256 257 257 257 257 257 258 260 262 262 261 262 263 264 265 265 266 267 268 268 268 269 269 269 269 269 269 269 269 269 269 269 270 271 271 274 281 289 294 295 296 296 297 297 298 298 298 298 298 299 299 298
263 262 262 262 262 262 262 261 261 261 261 260 260 259 259 259 258 257 257 256 256 255 255 255 255 256 257 258 258 258 257 257 256 256 257 257 257 258 257 258 261 264 263 262 262 263 264 265 265 266 267 268 268 268 268 269 269 269 269 269 269 269 269 269 269 269 270 271 272 276 283 290 294 295 295 296 297 297 297 298 298 298 298 298 298
263 262 262 262 261 261 261 261 261 260 260 260 260 260 259 259 258 258 257 257 257 256 256 256 255 255 255 256 256 256 256 256 256 257 257 257 258 258 259 260 262 264 264 263 263 263 264 265 265 266 267 268 268 268 268 269 269 269 269 269 269 269 269 268 269 269 270 271 272 274 279 287 293 295 295 295 296 296 297 297 297 297 297 298 298
263 262 262 262 261 261 261 261 260 260 260 260 260 260 259 259 258 258 257 257 257 257 257 256 256 255 255 255 255 255 256 256 257 257 258 258 258 259 260 261 263 264 263 263 263 263 264 264 265 265 266 267 268 268 268 268 269 269 269 269 269 269 269 268 269 269 270 271 272 274 279 285 291 294 294 294 295 296 296 297 297 297 297 297 297
262 262 262 262 261 261 260 260 260 260 260 260 260 260 259 259 258 258 258 258 258 258 257 257 256 256 255 255 255 256 256 256 257 257 258 259 259 260 261 262 263 264 264 265 264 264 264 264 265 265 266 267 268 268 268 268 268 269 269 269 269 269 269 268 269 269 270 272 273 275 279 285 291 293 293 294 294 295 295 296 296 296 297 297 297
262 261 261 261 261 261 260 260 260 259 259 259 259 259 259 259 258 258 258 258 258 258 258 257 257 256 256 256 256 256 256 257 257 258 259 259 260 261 261 262 263 264 265 265 265 264 264 264 265 265 266 267 268 268 268 268 268 269 269 269 269 269 269 269 268 269 270 272 273 276 280 285 290 293 293 293 294 294 294 294 295 295 296 297 297
261 261 261 261 261 261 260 260 260 259 259 259 259 259 259 259 258 258 258 258 258 258 258 257 257 257 256 256 256 257 257 257 258 259 259 260 260 261 262 262 263 264 265 265 265 264 264 264 265 265 265 266 268 268 268 268 268 269 269 269 269 269 269 269 268 269 270 271 273 275 278 281 286 289 291 292 293 293 293 294 294 294 294 295 295
261 261 261 261 261 260 260 260 259 259 259 259 259 259 259 259 258 258 258 258 258 258 258 257 257 257 257 256 256 257 257 258 258 258 259 260 260 261 262 262 263 263 264 264 264 264 264 264 264 265 265 266 267 268 268 268 268 268 269 269 269 269 269 269 268 268 269 270 271 272 274 276 279 282 286 289 291 293 293 293 293 293 294 294 294
261 261 261 260 260 260 260 259 259 259 259 259 259 259 258 258 258 258 258 258 258 258 258 257 257 257 257 256 256 257 257 258 258 258 259 260 260 261 261 262 262 263 263 264 264 264 264 264 264 265 265 266 267 268 269 268 268 268 268 269 269 269 269 268 268 268 268 269 269 270 271 272 273 275 278 281 285 288 291 292 293 293 293 293 293
Wind_Speed
13 10 8 7 7 7 7 9 10 12 13 15 17 19 21 22 25 27 29 31 32 33 34 35 35 35 34 34 33 32 32 31 29 27 27 27 27 28 28 28 28 29 29 29 28 28 30 30 31 31 30 32 33 33 33 33 33 33 35 36 37 39 36 21 13 16 17 21 27 27 27 30 33 34 35 39 40 40 37 44 47 45 47 48 51
12 9 7 7 6 6 7 9 10 12 13 15 17 19 20 22 24 27 29 31 32 33 35 35 34 33 32 32 32 31 31 30 28 26 27 29 29 29 28 27 29 29 28 29 28 28 29 30 31 30 30 32 33 33 32 32 32 32 33 35 36 36 35 26 15 12 13 17 23 26 27 28 32 34 32 33 37 38 36 39 46 45 47 48 48
11 8 7 6 5 6 7 8 10 12 13 15 17 18 20 23 25 27 29 30 31 32 33 32 32 31 30 30 31 31 30 29 28 27 28 30 30 31 30 29 30 31 29 29 29 29 30 30 31 30 29 32 33 33 33 33 33 33 34 36 36 34 33 31 22 14 11 14 20 23 25 26 31 34 32 33 35 34 35 38 45 46 48 49 47
10 8 6 5 5 6 7 8 9 11 13 15 16 18 21 24 26 27 28 29 30 31 31 30 30 29 29 30 30 30 30 29 29 29 29 30 31 32 31 30 30 31 31 30 29 29 30 31 30 30 30 32 33 31 32 33 32 32 33 35 37 35 33 31 26 20 14 12 17 22 24 26 30 33 32 32 33 33 34 38 43 47 48 50 49
10 8 6 4 5 5 6 7 9 11 13 15 17 19 22 24 25 26 28 29 29 30 31 30 28 28 29 30 30 30 30 29 31 32 31 31 32 32 32 32 31 31 31 30 30 29 30 31 31 29 30 32 33 31 30 31 31 30 32 35 36 34 31 27 24 24 20 15 15 21 24 26 28 32 32 30 31 31 33 39 42 45 45 47 49
10 8 5 5 5 4 6 8 9 11 13 15 18 20 22 24 26 26 27 29 30 30 30 30 28 29 30 30 30 30 30 30 30 31 32 32 32 31 32 31 31 31 31 30 30 30 30 31 31 30 30 32 32 31 29 28 28 28 32 34 34 30 26 23 21 22 22 20 19 20 23 25 26 30 31 29 28 28 29 34 39 43 44 43 44
10 7 6 5 4 4 6 8 9 11 13 16 18 20 22 23 25 27 26 27 29 30 31 30 30 30 31 29 28 28 30 31 30 31 32 32 32 32 31 31 32 32 32 31 31 30 31 32 31 30 30 31 33 33 32 32 29 28 31 34 31 27 22 20 20 20 20 19 17 18 21 23 24 27 30 28 27 29 29 25 25 33 41 42 41
9 7 6 4 3 4 6 7 9 11 13 16 18 20 22 23 24 26 27 27 28 29 30 32 32 31 29 27 27 28 29 30 30 31 31 31 31 32 31 32 32 32 33 33 32 32 32 33 33 33 33 34 34 34 35 35 32 29 31 34 29 23 20 18 18 19 19 15 13 17 20 20 20 24 26 23 19 22 28 26 20 24 34 41 43
9 7 5 3 2 4 6 7 9 11 13 16 18 20 21 23 24 25 26 26 27 29 29 30 30 29 27 26 27 27 28 29 29 30 31 32 33 33 30 29 30 30 31 32 33 34 33 33 33 33 35 37 37 36 36 36 33 30 31 33 28 21 18 17 15 15 16 12 10 13 15 14 16 17 16 17 17 19 27 29 24 26 32 35 41
9 7 5 3 3 4 5 7 9 11 13 15 18 19 20 22 23 24 25 25 26 28 27 25 25 26 27 28 27 28 28 29 30 32 34 35 36 35 33 31 30 29 28 27 29 31 33 33 32 32 33 34 36 38 39 39 38 36 36 36 32 24 18 14 14 15 14 9 7 10 9 10 14 16 16 21 25 25 27 26 21 24 26 24 29
9 7 5 3 2 3 5 7 9 11 13 15 17 19 20 21 22 23 24 25 26 26 24 22 22 24 26 27 27 28 30 30 32 36 38 37 37 37 36 34 34 31 29 28 27 27 30 32 31 31 33 32 33 36 37 38 39 39 39 40 39 35 26 17 14 15 15 11 8 9 8 8 15 21 22 25 26 26 28 27 23 19 15 13 13
10 7 5 3 2 3 5 7 9 11 13 15 16 18 19 20 22 23 24 25 26 24 22 21 23 23 25 27 28 30 33 34 36 38 39 38 38 37 35 33 33 31 29 29 27 24 26 29 28 29 30 30 30 32 33 34 35 35 37 38 40 40 37 30 22 19 17 14 10 11 12 12 17 22 24 24 25 27 29 28 27 23 14 11 10
10 8 5 3 1 3 4 7 9 10 12 14 16 17 19 20 21 22 24 25 25 23 21 21 22 23 25 29 30 32 36 37 38 38 39 39 38 38 34 31 31 31 29 27 25 22 23 26 26 25 26 27 28 30 31 30 29 29 31 34 35 36 35 34 31 27 26 23 17 16 19 18 19 24 27 27 26 27 27 24 27 29 21 16 18
10 8 5 3 1 2 5 7 8 10 12 14 15 17 19 20 21 22 24 25 25 25 25 24 23 24 29 32 33 36 39 39 38 39 39 38 38 37 34 30 30 30 29 27 25 24 23 25 25 25 25 26 26 28 29 28 27 26 27 28 30 30 29 30 31 31 32 33 30 28 28 27 27 31 34 33 31 29 27 25 26 30 30 28 32
10 8 5 3 1 2 4 6 8 10 11 13 15 17 18 20 21 22 24 25 26 27 27 27 29 30 33 35 37 40 43 40 37 39 39 38 38 36 32 30 30 30 30 29 28 27 25 24 25 26 26 26 26 27 28 27 24 24 24 25 26 28 28 29 30 31 32 35 36 35 34 34 34 36 39 38 37 35 36 40 39 38 37 32 32
10 8 5 3 1 2 4 6 7 9 11 13 15 17 18 20 21 22 24 26 27 27 27 28 32 34 35 35 37 42 43 39 36 39 39 37 37 33 30 30 30 29 30 29 28 29 27 24 23 24 26 26 26 27 28 28 26 24 24 24 24 26 27 29 31 31 32 33 35 35 36 37 37 37 40 42 40 39 38 42 42 39 31 20 17
10 7 5 3 1 3 4 5 6 8 11 13 14 17 18 20 22 22 24 27 27 28 29 30 31 32 33 34 36 40 42 38 36 38 38 36 35 33 30 30 29 29 29 29 28 28 27 24 23 23 24 26 27 27 28 29 28 25 24 23 24 24 25 28 29 29 31 33 34 35 36 38 39 41 43 43 43 41 33 25 30 31 22 14 11
10 7 5 3 2 3 3 4 6 8 10 12 14 16 18 20 22 22 23 26 28 28 30 31 30 29 30 32 32 34 37 38 37 36 35 36 36 33 30 29 29 29 29 29 29 27 25 25 26 27 27 27 28 27 28 28 27 25 21 20 21 21 23 26 27 27 28 29 30 31 33 36 38 41 43 43 42 44 34 26 35 31 19 14 12
10 8 5 4 3 2 3 4 5 7 10 12 13 16 18 20 22 22 23 25 27 28 29 29 29 29 30 31 30 31 36 39 36 33 34 36 36 34 31 29 28 29 29 29 29 28 25 24 26 28 29 29 29 28 28 28 27 26 23 19 19 20 22 23 24 25 25 24 26 28 31 36 36 36 39 40 40 44 40 40 48 37 21 16 16
10 8 6 4 3 2 3 4 5 7 9 12 14 15 17 19 21 23 24 25 26 28 27 26 28 31 31 30 31 32 36 37 34 32 34 36 36 35 32 29 28 29 29 27 27 28 26 23 23 26 28 30 30 30 30 29 28 27 24 21 20 21 22 22 22 23 23 23 26 27 30 35 35 33 36 37 38 43 41 46 54 47 38 29 22
11 9 7 5 3 2 3 4 5 8 9 12 14 15 17 19 21 22 24 25 25 25 24 26 31 31 27 27 30 32 31 32 32 33 35 35 35 35 33 29 29 29 29 27 27 28 27 24 22 24 25 27 29 29 29 29 30 28 26 24 25 25 25 25 23 23 23 23 25 27 28 31 32 31 33 33 35 38 37 46 52 51 52 46 32
11 9 8 5 4 3 4 4 6 8 10 12 14 15 17 19 20 21 23 23 22 22 25 31 31 26 22 24 28 29 29 30 30 33 35 35 35 36 34 32 32 31 29 28 28 28 28 26 25 24 24 26 28 28 28 28 29 29 28 28 29 29 29 27 25 24 23 22 22 23 25 26 27 27 29 30 31 33 34 42 44 44 51 60 56
12 10 8 6 4 4 4 5 7 9 11 12 14 15 17 19 20 21 21 22 21 22 29 34 29 23 23 25 26 28 31 31 30 33 36 36 36 37 36 35 35 32 29 28 29 29 29 28 27 27 26 26 27 28 28 27 27 28 29 28 29 30 29 27 26 25 23 20 19 20 22 23 22 23 25 26 28 31 31 35 39 38 39 47 50
12 10 8 6 5 5 5 6 7 9 11 13 14 15 17 19 21 21 20 20 20 21 27 32 25 20 24 27 26 29 32 32 31 33 36 37 37 38 38 38 36 33 30 30 29 29 29 29 29 30 30 29 29 29 29 29 27 26 27 28 29 29 27 26 26 23 20 17 15 16 19 21 22 23 25 26 29 31 30 30 35 37 34 31 26
13 11 9 7 5 5 5 6 8 10 12 13 15 16 17 19 20 20 20 20 19 20 26 28 23 20 23 25 27 31 33 32 33 36 38 38 36 37 38 38 37 34 32 31 30 30 32 33 34 33 32 30 29 28 28 29 28 27 26 27 28 28 27 27 25 20 17 15 14 15 18 22 24 26 27 28 30 28 25 24 27 31 33 31 25
13 11 9 7 6 5 6 7 9 10 12 14 15 15 16 17 17 18 18 19 20 24 26 24 21 22 24 23 25 31 32 31 34 40 42 39 37 38 40 38 36 35 32 30 32 34 36 36 33 31 28 25 24 23 23 25 27 27 26 26 26 26 25 25 22 17 14 13 14 16 19 23 24 26 26 27 27 24 22 24 27 30 34 35 29
14 12 10 8 7 6 6 7 9 11 13 15 15 14 15 15 16 17 17 19 22 24 23 21 21 23 25 24 25 29 30 32 36 41 42 39 38 40 41 39 37 35 32 32 34 35 36 35 31 28 26 24 23 24 24 23 23 23 23 23 23 23 22 21 19 17 16 15 16 18 21 24 22 22 24 24 25 27 28 29 29 31 36 37 31
15 13 11 10 8 8 8 8 9 10 13 16 16 14 14 15 16 16 17 19 22 23 21 21 22 23 25 27 27 26 27 32 38 40 40 39 39 40 40 39 37 35 34 37 38 35 33 31 25 20 19 19 20 20 18 18 20 20 19 20 20 21 21 21 20 20 19 18 18 20 22 22 19 20 22 21 24 29 31 29 28 31 36 34 24
16 14 12 11 10 9 9 9 9 10 12 15 16 14 12 13 14 16 17 18 19 21 22 22 23 24 25 27 27 25 26 32 37 39 40 39 39 39 38 38 36 35 36 38 35 30 28 27 20 14 11 13 14 14 12 12 15 17 18 18 19 19 20 20 20 20 19 19 19 20 21 19 17 19 21 19 21 28 32 29 26 28 34 31 21
18 15 13 12 11 10 9 9 9 10 12 13 16 17 14 11 9 11 16 18 18 19 20 21 23 25 24 25 26 25 28 33 37 38 39 38 38 39 38 37 36 36 36 35 29 24 22 21 20 18 16 15 13 10 8 9 11 12 13 16 17 18 18 19 19 19 19 19 20 20 19 17 16 17 19 18 18 24 30 31 28 27 27 24 19
19 17 15 13 12 11 9 9 9 10 11 11 14 17 18 16 12 10 13 17 19 19 20 21 22 23 23 25 26 27 30 34 35 36 38 38 38 39 38 37 37 37 34 29 23 22 20 18 17 18 18 16 16 16 15 11 8 9 10 12 14 16 17 17 18 19 19 20 21 19 17 16 16 16 19 19 18 21 26 28 29 28 26 23 18
20 18 16 13 12 11 10 9 9 10 10 10 10 13 15 17 17 15 16 18 18 17 19 22 23 23 23 25 26 29 32 33 35 36 37 37 38 39 37 37 37 36 34 30 25 22 21 17 16 18 18 16 16 18 20 19 15 12 9 10 12 14 16 17 19 20 20 20 19 18 17 18 17 17 19 21 20 19 21 23 25 26 26 24 22
20 19 17 15 13 12 10 9 10 10 9 8 8 9 9 12 15 17 19 21 20 18 19 22 24 25 24 25 26 29 32 32 34 35 35 37 39 38 37 39 40 38 35 30 23 21 20 18 17 18 18 17 18 18 18 18 19 19 16 12 11 14 17 19 20 21 21 21 19 17 17 19 19 17 18 20 21 20 19 21 23 24 23 20 19
19 18 17 15 14 12 11 10 10 9 8 7 6 7 7 7 9 13 17 19 20 21 23 26 26 25 25 26 27 30 32 32 32 33 35 37 37 36 40 46 50 50 44 31 21 19 18 17 18 20 19 17 18 19 18 18 18 18 19 20 17 15 17 19 19 19 20 20 19 18 17 19 20 18 16 17 19 20 19 20 21 20 18 17 17
19 18 16 14 13 12 11 10 10 9 7 6 5 6 7 7 8 10 12 14 17 20 24 28 29 25 24 25 27 30 32 32 31 32 35 36 36 39 45 48 48 49 47 37 26 22 20 17 17 20 20 19 19 19 18 18 19 19 19 20 21 21 18 17 18 18 18 19 18 17 18 20 21 19 17 16 17 17 17 18 19 19 18 19 19
19 18 17 14 13 12 11 10 10 8 7 5 5 5 6 7 8 10 11 12 14 17 21 26 29 28 26 27 29 31 32 31 30 32 33 35 37 40 41 39 38 41 44 40 31 25 26 24 20 20 21 21 21 21 20 19 20 20 20 19 19 21 21 17 15 16 17 18 18 17 18 20 22 21 18 17 18 19 18 20 21 21 21 22 21
19 18 17 15 14 13 11 10 9 8 6 5 5 6 7 8 9 10 12 13 14 16 19 23 26 28 29 31 31 32 33 31 30 33 35 37 41 40 35 35 39 42 43 41 32 24 26 30 27 25 26 26 25 24 23 22 22 22 22 23 21 20 22 22 17 17 17 16 17 18 18 20 23 24 20 16 16 19 20 21 21 21 22 25 24
19 18 16 15 14 13 11 11 10 7 5 5 6 7 8 9 10 11 13 14 15 16 19 22 23 24 26 28 30 33 34 33 34 37 38 39 42 40 35 37 45 47 43 40 33 24 25 30 32 31 32 32 30 28 26 26 26 25 24 24 24 22 24 26 20 17 18 17 16 17 19 20 22 24 23 19 17 18 20 21 21 19 20 23 23
19 17 15 15 14 12 12 11 9 7 6 5 6 8 9 10 12 13 14 15 15 17 19 21 22 23 24 27 30 32 33 33 32 33 35 36 37 37 35 39 48 51 44 39 35 29 26 30 34 35 34 32 31 32 31 28 27 27 25 24 24 24 24 25 22 16 15 17 16 16 18 21 23 25 25 23 20 20 21 22 23 21 20 20 23
20 18 16 15 14 13 12 11 9 7 6 6 6 7 8 10 11 12 13 14 15 17 18 19 22 24 24 25 27 28 28 28 27 28 31 33 34 35 36 39 47 50 43 37 36 34 30 31 34 35 35 33 33 34 34 32 30 28 26 24 23 23 22 22 25 24 18 13 16 17 18 20 23 24 25 24 23 23 23 23 24 25 24 24 25
22 20 17 15 15 13 12 11 9 7 6 5 6 6 8 9 10 11 12 12 14 16 18 19 21 24 24 23 23 24 25 25 25 26 28 29 31 34 36 38 44 48 43 37 36 37 35 34 35 34 34 36 36 35 35 34 32 30 28 26 25 23 22 23 26 29 29 22 13 15 19 20 22 23 25 26 26 25 25 25 26 27 26 25 25
22 20 18 16 15 13 13 11 9 7 6 5 5 6 7 8 9 10 11 12 14 16 19 20 22 24 24 23 22 24 26 26 25 26 27 28 30 33 35 39 44 46 41 36 36 37 36 36 37 35 34 35 37 36 35 34 33 33 31 31 29 26 24 26 29 31 32 31 23 14 15 20 23 24 25 27 26 25 24 25 26 27 25 24 24
22 20 18 17 15 14 13 11 9 7 5 4 5 6 6 8 9 10 10 12 14 16 18 20 22 24 24 24 24 25 28 29 28 28 29 29 31 32 33 39 46 47 43 39 39 37 36 38 38 36 34 34 36 36 35 33 33 34 33 32 31 29 27 29 33 34 33 32 30 22 13 16 22 23 24 25 25 24 24 24 24 25 25 24 24
22 20 19 18 16 14 13 11 9 7 6 5 4 5 6 7 9 10 11 12 14 15 17 19 20 22 24 25 26 27 28 28 28 29 29 30 32 31 32 37 44 47 45 43 41 38 37 39 39 37 36 36 37 37 35 34 33 34 34 32 32 32 33 33 35 35 32 30 30 26 18 13 18 21 21 23 25 24 23 23 23 22 23 23 23
22 21 20 19 17 15 13 11 9 7 6 5 4 5 6 7 8 10 11 13 14 15 16 17 18 20 22 23 24 25 26 27 27 29 30 31 32 33 35 39 43 46 46 44 42 40 39 39 41 40 38 38 40 39 38 36 35 34 34 33 32 33 35 35 34 32 30 28 27 25 20 14 15 18 19 21 24 24 23 24 24 23 23 23 23
22 21 20 19 17 15 13 11 9 8 6 5 4 5 5 6 8 10 11 12 14 15 16 17 18 18 20 21 22 24 25 26 26 28 29 31 32 34 37 39 42 44 45 44 41 40 39 39 40 41 39 39 41 42 40 38 38 37 36 35 35 36 36 36 34 31 29 27 24 21 19 15 14 18 19 20 22 23 23 24 25 24 24 24 23
22 21 19 18 17 15 13 11 10 8 7 6 5 5 5 6 7 8 10 12 14 15 15 17 17 18 19 20 21 22 23 24 25 26 28 30 32 34 36 39 40 41 43 43 42 41 40 40 40 40 39 38 41 43 43 41 41 41 40 40 41 42 41 39 36 33 29 25 21 18 15 13 14 19 19 18 19 20 20 22 23 24 25 25 24
22 21 19 17 16 14 13 11 10 8 7 6 6 5 5 5 6 8 9 11 12 14 15 16 17 18 19 19 20 22 22 23 25 26 27 29 32 33 35 37 38 39 40 42 42 41 41 41 41 41 40 39 40 43 45 44 43 44 44 44 46 47 44 41 39 36 31 27 23 18 13 6 10 18 20 20 19 19 18 18 20 22 23 23 24
22 20 19 17 15 14 12 11 10 9 8 7 6 5 5 5 5 7 9 10 11 12 14 15 16 17 18 19 20 22 23 23 24 26 27 28 30 32 33 35 37 38 39 41 42 41 40 41 41 41 41 39 38 42 45 46 45 47 48 48 49 49 47 44 43 39 35 31 28 24 18 12 3 8 15 18 20 21 20 19 19 20 20 19 20
21 20 18 17 15 13 12 11 9 9 8 7 6 5 4 4 5 7 8 9 10 11 12 14 15 16 17 19 20 21 22 23 24 25 26 27 29 31 32 34 35 37 38 39 40 40 40 41 42 42 42 40 37 39 44 47 47 48 50 51 50 50 49 47 46 44 40 36 33 30 26 22 16 10 5 8 13 17 20 20 21 21 21 19 20
21 19 18 16 14 13 12 10 9 9 8 7 6 5 4 4 5 7 8 8 10 10 11 12 14 14 15 17 19 19 21 22 22 23 25 26 28 30 31 32 34 36 37 38 39 39 40 41 42 43 44 42 37 36 42 47 49 49 51 52 52 51 49 47 46 46 44 41 37 35 32 29 26 23 18 11 6 8 13 17 20 22 21 20 21
Wind_Direction
214 221 228 246 267 283 299 312 319 316 313 319 322 321 319 317 316 315 314 314 314 313 312 311 309 308 305 302 300 297 295 294 293 291 289 288 287 286 287 285 281 281 282 279 276 275 273 272 270 267 266 264 260 257 255 254 254 253 253 255 256 257 250 240 251 260 254 256 263 267 268 274 277 273 276 275 274 279 261 223 210 209 207 208 211
210 219 229 247 271 289 303 315 316 312 315 323 324 321 320 320 319 318 316 316 316 315 315 314 312 308 303 299 298 296 294 293 294 293 292 292 290 288 288 285 282 281 281 279 276 276 276 274 274 271 269 267 264 260 258 255 255 255 255 255 256 254 246 239 244 258 261 259 261 267 269 272 275 271 272 274 271 277 271 235 212 208 209 208 208
206 215 231 252 275 295 308 313 310 312 320 325 324 325 324 324 324 321 319 318 318 317 316 314 312 307 301 298 297 297 295 294 294 294 293 292 290 287 286 284 282 279 278 278 276 275 276 275 275 276 272 268 265 262 259 256 253 251 252 254 256 256 247 239 241 250 262 264 260 266 270 269 272 274 275 274 269 272 272 244 216 208 209 207 207
204 214 228 252 281 298 308 311 308 315 326 327 327 329 328 327 325 322 319 317 316 317 317 314 309 305 301 298 297 296 296 296 297 296 293 292 289 286 284 282 280 277 276 277 277 275 275 274 275 276 274 270 266 262 259 258 255 252 250 251 253 254 249 241 243 250 260 270 262 264 270 270 271 274 275 275 270 267 268 249 219 206 206 205 204
202 212 223 250 278 292 303 311 315 325 332 331 331 332 329 326 324 319 317 317 316 316 317 316 310 304 300 299 299 297 297 298 299 296 293 291 287 284 282 281 278 277 275 274 275 274 273 273 274 274 274 273 270 266 262 260 261 260 258 256 251 247 244 240 246 254 258 266 269 267 269 268 268 271 269 268 268 265 264 252 224 202 199 199 199
199 208 221 248 267 283 304 315 324 333 336 335 334 331 327 324 323 321 319 318 318 318 317 314 310 305 302 300 298 298 299 299 297 294 291 289 286 283 281 279 277 275 273 272 272 271 270 271 271 271 272 272 270 270 269 267 267 265 265 263 250 238 235 237 243 252 257 263 272 273 268 264 263 264 262 259 261 263 262 250 224 201 192 190 190
198 205 219 240 263 292 310 317 327 335 338 337 334 328 323 321 321 321 321 319 318 319 317 313 309 306 304 302 300 301 302 300 297 294 291 287 284 282 280 279 278 274 270 268 266 265 266 266 266 266 267 268 267 267 269 271 272 270 271 269 253 234 230 236 241 250 258 263 270 273 270 266 259 259 264 263 259 259 258 245 219 198 189 183 182
193 200 213 229 262 297 309 318 331 338 339 335 330 325 322 320 319 321 322 320 318 318 316 314 312 309 305 303 303 303 302 300 298 296 294 290 287 283 279 275 274 272 269 266 264 262 261 261 261 260 259 262 264 263 262 262 265 269 271 270 258 237 230 238 241 249 259 263 268 272 275 275 267 263 267 265 258 258 252 236 210 191 187 181 178
190 198 206 218 259 288 308 325 337 339 337 331 326 322 320 319 320 320 320 320 319 319 316 312 311 309 306 305 305 305 302 299 298 297 295 294 292 288 284 277 271 268 266 264 262 261 258 257 257 256 256 258 260 261 260 255 255 260 264 270 268 246 231 236 240 249 259 261 264 271 274 278 273 270 267 254 248 252 245 229 204 185 183 178 176
186 191 193 207 260 290 315 330 341 341 335 329 323 321 320 319 320 320 320 321 320 320 317 310 306 306 306 307 307 306 301 296 295 297 296 295 295 293 291 286 279 274 268 262 261 259 256 253 251 253 258 261 262 263 262 257 254 253 255 263 270 262 244 232 234 246 254 256 262 264 265 273 269 268 264 251 247 247 240 224 195 176 176 172 173
180 182 184 201 258 304 325 334 343 340 332 327 323 321 320 320 320 320 322 322 322 320 316 309 307 308 307 307 308 305 302 297 297 298 298 297 296 294 292 288 284 279 270 265 263 258 253 249 247 251 257 262 266 266 264 260 256 253 253 255 259 260 254 241 236 244 251 255 259 255 258 269 268 268 266 258 251 246 236 217 186 169 173 168 165
173 173 177 189 257 310 326 337 344 340 331 326 323 323 323 321 321 323 324 324 324 321 315 309 309 309 307 307 306 303 300 299 300 300 300 301 300 297 293 288 285 281 272 266 262 255 251 249 246 249 253 260 265 264 264 262 257 253 253 253 255 256 252 245 242 243 249 255 253 252 255 261 268 269 264 262 257 243 231 213 183 166 168 168 154
168 166 173 184 244 308 330 343 345 338 331 327 325 325 324 323 325 327 326 326 324 320 315 311 308 308 308 307 305 302 301 301 303 304 304 304 304 302 298 292 288 285 279 271 261 253 253 251 247 247 250 257 263 262 262 263 261 257 255 255 258 259 254 249 246 247 252 255 253 252 254 258 266 267 263 267 263 240 221 205 183 167 161 169 165
164 162 164 178 230 312 340 349 345 336 331 330 328 328 327 326 329 331 329 327 324 321 318 315 311 309 311 310 306 305 305 305 306 307 308 308 308 306 302 298 295 293 292 287 275 265 259 252 247 249 250 253 257 259 259 259 258 257 258 259 260 260 260 256 253 254 255 255 255 257 259 262 264 266 268 271 268 246 215 191 181 172 165 170 168
161 160 160 176 229 335 352 351 342 334 333 332 330 331 332 330 331 333 330 326 323 322 320 317 315 314 315 314 310 308 309 309 308 310 311 311 312 311 306 303 302 299 297 294 287 278 268 255 249 251 251 251 253 256 258 257 254 252 255 260 259 259 260 257 254 256 254 253 256 258 263 267 266 269 271 269 270 255 217 189 179 173 164 161 162
159 159 157 170 189 6 359 350 341 335 334 334 334 335 335 333 334 334 330 326 324 323 321 318 317 316 316 316 312 310 311 311 310 313 315 314 315 315 311 308 305 301 298 296 292 287 278 262 250 249 251 252 254 256 256 255 255 253 252 256 257 256 256 254 253 254 253 256 260 261 267 272 271 274 270 265 271 263 226 194 177 167 155 146 155
160 158 158 159 90 23 1 348 342 339 337 335 335 337 337 336 337 335 329 325 324 323 321 319 318 317 316 317 315 312 311 312 314 316 317 317 319 318 313 309 306 303 302 300 296 291 282 268 254 248 251 254 256 258 257 255 255 253 249 250 252 253 255 255 255 256 256 261 265 266 272 275 276 278 271 263 268 265 243 201 169 161 152 146 157
160 157 157 143 79 31 6 352 344 341 340 337 336 339 340 338 337 335 330 324 322 322 322 319 318 317 317 318 316 311 310 313 316 317 318 319 320 319 314 311 308 305 304 302 297 291 283 274 263 254 252 255 257 258 257 257 260 259 253 249 248 249 253 255 257 260 260 263 267 269 274 278 281 281 273 263 262 261 246 196 167 163 156 150 156
160 154 146 122 82 43 8 0 351 346 344 342 341 343 343 340 338 335 331 325 322 323 323 320 319 322 321 320 319 315 314 315 317 319 321 322 322 321 317 312 308 306 303 301 299 295 288 278 269 261 257 257 259 259 257 255 257 258 256 257 255 252 254 254 255 260 261 263 269 273 278 283 286 285 275 262 257 258 241 192 170 166 160 154 157
156 150 137 115 94 63 26 13 1 355 351 349 349 349 346 343 339 336 333 330 325 324 323 322 322 324 323 322 323 322 319 318 319 322 323 323 323 322 318 312 308 308 306 303 301 299 293 282 273 268 265 263 260 259 258 254 252 250 248 251 255 256 261 262 259 260 262 266 274 279 283 287 289 285 272 257 253 257 237 192 172 168 162 156 159
152 144 131 117 111 78 46 31 14 6 1 357 354 354 351 346 341 337 334 331 326 322 324 324 322 321 322 323 325 326 325 323 322 325 325 324 324 323 319 314 311 310 308 304 302 300 296 289 279 272 269 268 263 259 257 255 253 250 246 246 252 255 259 263 262 262 264 268 276 282 285 289 288 279 263 250 248 251 226 189 177 173 164 158 161
146 136 129 125 116 89 62 42 23 14 9 4 358 355 354 349 344 340 337 332 327 324 327 328 323 319 321 324 326 328 330 328 326 327 327 326 326 326 323 318 316 312 309 305 302 300 296 292 287 279 274 272 267 260 258 255 253 252 250 249 253 254 254 256 258 260 263 266 275 281 282 286 283 265 247 238 239 237 212 186 180 177 169 164 165
141 133 133 130 114 91 68 47 31 19 12 8 2 357 354 350 346 343 339 333 328 326 330 330 326 322 325 328 328 331 333 332 330 330 330 329 328 328 325 322 320 316 311 306 303 301 297 292 288 284 280 278 271 262 258 256 253 252 251 251 253 252 251 250 251 254 257 260 268 274 276 279 271 247 229 223 223 219 204 186 177 175 172 169 167
138 136 137 130 114 93 70 51 36 25 17 11 6 1 357 350 345 344 341 335 326 321 325 329 328 328 330 329 329 333 336 335 333 332 332 332 332 332 330 327 325 320 314 307 302 299 296 292 289 286 282 279 276 269 261 255 254 253 251 252 253 252 248 245 244 246 248 253 261 264 270 275 259 232 218 213 208 203 197 186 178 174 172 169 165
138 140 140 131 116 94 73 55 38 27 20 15 12 5 356 347 342 342 341 335 325 318 322 328 332 333 331 330 330 332 333 335 335 335 335 335 334 334 333 331 327 324 318 311 304 300 296 292 290 288 284 279 276 273 264 255 252 253 251 250 250 252 248 240 237 238 240 248 259 261 269 274 256 228 213 206 200 193 186 178 172 168 165 163 163
140 142 140 131 118 95 75 57 39 26 19 18 18 10 356 343 338 338 338 334 328 324 324 330 336 334 331 331 331 328 330 335 336 336 339 339 337 337 337 335 331 327 322 316 311 305 298 291 286 283 281 276 271 271 265 252 246 249 250 248 247 250 247 234 227 232 239 248 260 264 271 275 257 227 208 199 190 177 167 160 154 154 157 156 151
143 144 139 131 117 96 78 58 39 25 18 17 18 14 2 349 340 337 335 331 326 325 327 333 337 334 331 334 332 326 328 335 337 339 342 342 340 340 340 337 335 332 329 327 322 314 306 298 286 276 276 274 270 269 265 250 240 242 247 246 244 246 246 237 231 237 243 249 259 265 273 276 257 219 198 193 183 168 162 159 154 154 157 154 145
145 144 137 127 112 95 78 60 42 28 19 14 13 12 7 357 346 339 336 331 325 326 332 336 336 335 334 335 333 327 330 338 341 342 344 343 342 343 342 340 339 336 335 334 329 325 324 319 301 278 273 274 270 267 259 243 234 236 240 242 242 243 245 244 241 243 245 250 259 265 271 271 248 207 189 189 181 167 163 162 159 157 157 152 145
146 142 136 126 111 97 82 65 49 37 25 14 8 7 5 357 346 339 340 339 333 334 338 339 338 339 339 338 336 333 335 340 340 342 344 345 346 347 346 344 341 338 340 341 336 333 340 344 336 320 311 302 283 263 241 227 231 235 236 236 238 240 241 240 239 242 246 249 253 258 262 260 236 200 186 187 181 170 166 164 160 159 158 154 150
146 141 135 126 113 102 89 74 59 47 36 20 7 3 3 4 359 344 339 341 341 343 345 343 342 342 343 343 341 338 338 339 339 342 345 347 350 352 351 348 346 344 345 346 345 345 350 352 351 351 352 346 330 302 261 233 228 230 233 234 234 234 235 237 238 242 246 246 246 249 251 246 227 199 184 183 179 173 171 168 162 160 160 157 153
148 142 136 128 117 108 94 81 71 58 47 32 13 3 359 3 16 16 356 349 349 350 350 349 348 348 348 346 344 343 343 342 343 346 349 351 354 356 355 353 353 352 350 350 355 359 356 350 347 350 354 357 353 344 332 310 271 240 228 226 230 232 232 235 239 242 243 243 243 244 241 231 220 203 187 179 175 174 172 170 167 165 164 160 156
149 143 138 131 121 113 101 88 78 65 54 42 23 6 355 352 358 8 14 12 4 355 351 351 351 353 354 351 349 348 348 347 347 350 353 355 358 359 359 359 358 356 358 3 7 3 355 351 350 350 352 355 352 345 343 340 330 310 272 234 226 230 234 239 242 241 241 241 239 237 232 222 215 207 193 180 173 172 171 170 172 172 168 164 161
150 143 139 134 125 117 107 95 81 69 58 43 21 6 355 344 338 341 355 9 15 14 10 4 358 355 355 355 354 352 351 350 351 353 356 359 360 359 2 4 5 5 6 6 4 358 352 351 351 350 351 353 349 342 340 340 337 333 322 296 260 238 234 240 243 239 237 239 236 231 226 217 210 207 198 183 174 173 172 173 177 176 171 167 164
149 143 139 135 128 119 110 99 86 76 64 45 16 355 350 344 328 321 329 345 357 4 8 12 11 3 355 353 355 354 353 354 354 355 359 1 0 2 8 10 10 12 11 5 355 351 350 348 350 351 349 348 347 344 340 337 335 335 332 325 311 281 250 238 236 235 234 234 232 227 221 214 208 205 198 186 178 176 176 176 177 177 172 167 164
148 143 139 135 127 119 111 100 90 81 69 46 17 356 351 349 340 330 325 328 331 333 342 356 7 7 358 355 355 355 354 356 356 358 2 3 2 8 15 12 6 5 5 360 351 350 349 346 346 349 347 346 346 344 340 337 336 334 328 324 322 314 289 252 232 231 232 228 227 224 215 209 206 204 197 189 182 179 178 177 176 176 174 168 165
149 144 139 135 128 118 110 101 90 80 69 47 18 6 5 358 346 342 341 338 333 327 331 346 360 7 7 6 2 356 355 357 357 358 2 4 6 13 17 10 359 356 357 354 349 347 350 351 348 344 344 345 345 343 340 337 335 333 328 322 318 317 309 284 246 228 226 225 224 221 213 205 202 201 198 193 187 184 181 178 177 178 175 168 165
150 147 142 136 128 119 110 102 92 82 72 54 30 20 18 10 358 355 354 349 343 337 338 347 358 4 6 8 5 357 355 359 2 3 5 8 12 15 14 7 1 359 356 352 348 343 347 352 352 350 349 348 344 342 342 340 337 334 332 329 321 314 314 306 276 237 223 223 221 216 211 206 200 197 196 194 191 189 185 179 178 179 175 168 165
151 148 142 135 128 120 113 106 97 88 80 60 38 30 23 13 6 5 2 356 349 345 346 353 359 358 356 359 359 356 356 3 8 7 6 8 11 12 8 5 4 1 356 354 351 343 342 349 353 353 354 352 349 346 344 342 341 338 334 332 327 323 327 326 304 256 226 220 219 214 209 204 200 197 196 194 192 191 187 181 179 178 173 168 166
149 144 139 134 129 123 116 111 103 96 88 66 43 34 26 17 13 10 5 357 353 353 354 356 359 357 354 355 356 354 357 3 5 2 0 3 7 8 5 3 4 2 358 356 353 346 342 347 352 354 356 355 354 352 348 344 343 341 337 336 333 331 335 337 327 297 249 223 215 213 208 203 199 197 198 198 195 191 187 183 181 178 175 174 174
149 146 144 138 132 125 118 112 106 100 89 67 48 38 28 19 16 13 6 357 353 356 358 358 357 359 360 358 356 356 358 359 358 358 358 358 0 3 4 3 3 2 358 355 354 350 346 346 350 354 357 357 355 354 352 349 347 344 342 341 338 334 332 335 337 332 314 263 224 210 207 203 198 196 198 200 199 194 188 185 183 182 181 180 179
150 148 146 139 132 127 121 114 108 100 89 71 52 41 31 24 20 14 8 2 357 359 2 1 1 4 6 0 356 360 3 0 356 358 359 357 355 359 3 3 3 3 1 357 354 352 349 348 350 353 357 358 357 355 354 353 351 348 346 345 342 338 334 335 338 340 336 321 277 224 207 202 199 197 197 198 200 197 192 187 185 185 185 182 177
152 148 144 138 134 128 122 117 113 105 96 80 61 46 33 28 26 20 14 11 7 5 6 4 4 10 12 6 0 4 9 7 2 359 360 359 357 359 1 3 4 6 4 0 356 354 352 352 353 354 358 359 358 356 355 354 353 351 349 348 345 342 338 338 339 340 339 333 318 277 224 204 200 201 200 197 195 195 193 190 187 186 185 181 175
151 146 141 137 133 128 123 120 117 113 107 90 69 54 40 33 30 24 20 19 16 13 10 6 5 8 11 11 11 12 12 10 6 2 1 1 359 358 359 1 5 9 10 6 3 1 357 355 355 357 359 1 1 359 357 356 354 352 350 349 347 345 343 341 341 340 338 332 324 310 271 217 204 203 202 198 195 192 191 190 189 186 183 179 175
149 145 141 137 132 129 125 122 123 121 110 93 76 58 43 37 32 27 25 24 22 20 16 10 6 6 7 10 13 14 11 9 6 3 2 2 1 359 358 1 6 11 12 10 8 6 2 359 358 359 0 2 3 2 0 359 358 356 354 351 350 349 348 344 340 339 335 329 321 315 298 249 213 203 201 198 196 193 191 188 187 186 183 178 175
149 145 142 137 132 130 128 125 126 126 116 101 87 66 47 39 33 29 28 27 24 23 20 15 10 7 5 7 9 9 8 7 5 4 4 4 2 2 2 5 9 12 12 11 10 9 5 2 1 0 1 2 4 3 2 2 2 1 360 358 356 354 350 346 342 341 338 331 321 314 304 275 226 205 200 197 195 194 193 190 187 185 182 180 179
148 145 142 138 134 132 132 131 130 130 129 121 104 80 57 43 35 31 30 28 27 24 21 16 13 9 6 6 7 7 7 7 6 6 6 6 5 5 6 8 11 13 12 11 12 10 6 4 4 3 1 2 3 4 3 3 4 4 4 4 3 360 356 353 351 349 346 339 329 319 308 285 235 206 199 198 195 194 193 191 188 187 185 183 183
148 144 141 139 136 134 135 136 136 134 132 125 109 88 66 49 38 33 31 30 28 26 22 17 13 10 8 7 6 6 8 8 7 7 8 8 8 9 9 10 12 14 15 15 15 13 8 6 6 5 3 4 5 5 4 3 5 6 7 7 6 4 2 2 1 360 357 352 345 336 320 287 233 205 196 194 195 194 192 190 189 188 188 187 185
148 145 141 139 139 138 139 139 139 138 134 124 109 93 73 52 38 34 33 32 28 25 22 18 14 10 8 7 7 7 8 9 10 10 11 12 12 12 12 12 13 15 17 18 17 14 10 8 7 6 5 6 8 7 5 4 5 7 8 9 8 7 8 9 9 8 9 9 8 6 357 315 221 200 194 191 191 190 188 188 189 190 190 190 188
149 146 143 141 141 141 143 144 143 140 134 124 111 98 79 57 40 35 34 33 30 25 21 17 14 11 8 7 8 10 10 11 12 12 13 14 14 14 15 15 15 15 16 17 17 15 11 9 8 7 6 7 9 9 7 6 7 8 9 9 9 9 11 14 16 16 18 21 22 25 28 29 62 180 187 190 190 187 183 182 184 185 186 187 185
150 147 144 143 144 145 147 147 145 140 133 124 115 104 85 62 46 37 34 31 29 26 22 18 15 12 9 7 8 10 11 11 11 12 13 14 15 16 16 17 16 15 15 17 18 15 11 9 9 9 8 8 9 11 10 9 9 9 11 11 11 11 13 15 19 23 25 26 27 30 32 33 38 53 99 165 181 183 182 179 177 177 178 178 178
149 147 145 145 146 150 152 151 147 142 134 126 117 108 90 67 49 38 34 30 24 21 20 18 15 13 10 8 8 10 11 11 12 13 14 15 16 16 17 17 17 16 16 18 18 15 12 10 10 9 9 8 8 11 12 12 11 13 14 13 12 13 14 15 18 24 28 31 32 34 34 34 35 37 40 49 91 157 173 176 176 176 176 175 173